Time,TemperatureF,DewpointF,PressureIn,WindDirection,WindDirectionDegrees,WindSpeedMPH,WindSpeedGustMPH,Humidity,HourlyPrecipIn,Conditions,Clouds,dailyrainin,SoftwareType,DateUTC
2014-08-29 00:02:00,95.3,78.0,29.58,ESE,102,4.0,11.0,58,0.00,,,0.00,weatherlink.com 1.10,2014-08-28 21:02:00,
2014-08-29 00:17:00,95.3,79.0,29.57,ESE,111,2.0,11.0,59,0.00,,,0.00,weatherlink.com 1.10,2014-08-28 21:17:00,
2014-08-29 00:32:00,94.9,80.0,29.57,SE,131,4.0,7.0,63,0.00,,,0.00,weatherlink.com 1.10,2014-08-28 21:32:00,
2014-08-29 00:47:00,94.4,83.0,29.57,ESE,103,4.0,10.0,70,0.00,,,0.00,weatherlink.com 1.10,2014-08-28 21:47:00,
2014-08-29 01:02:00,93.7,84.0,29.56,SE,124,3.0,8.0,73,0.00,,,0.00,weatherlink.com 1.10,2014-08-28 22:02:00,
2014-08-29 01:17:00,93.0,84.0,29.56,ESE,122,4.0,8.0,74,0.00,,,0.00,weatherlink.com 1.10,2014-08-28 22:17:00,
2014-08-29 01:32:00,92.7,84.0,29.56,SE,130,0.0,6.0,75,0.00,,,0.00,weatherlink.com 1.10,2014-08-28 22:32:00,
2014-08-29 01:47:00,92.6,84.0,29.57,ENE,73,4.0,9.0,76,0.00,,,0.00,weatherlink.com 1.10,2014-08-28 22:47:00,
2014-08-29 02:02:00,92.4,83.0,29.57,East,92,3.0,6.0,75,0.00,,,0.00,weatherlink.com 1.10,2014-08-28 23:02:00,
2014-08-29 02:17:00,92.4,85.0,29.57,East,82,8.0,9.0,79,0.00,,,0.00,weatherlink.com 1.10,2014-08-28 23:17:00,
2014-08-29 02:32:00,91.9,85.0,29.57,East,87,6.0,11.0,79,0.00,,,0.00,weatherlink.com 1.10,2014-08-28 23:32:00,
2014-08-29 02:47:00,91.7,85.0,29.57,East,85,3.0,9.0,81,0.00,,,0.00,weatherlink.com 1.10,2014-08-28 23:47:00,
2014-08-29 03:02:00,91.4,85.0,29.58,ESE,118,4.0,8.0,82,0.00,,,0.00,weatherlink.com 1.10,2014-08-29 00:02:00,
2014-08-29 03:17:00,91.2,85.0,29.58,SE,138,2.0,6.0,83,0.00,,,0.00,weatherlink.com 1.10,2014-08-29 00:17:00,
2014-08-29 03:32:00,91.0,85.0,29.58,SE,141,5.0,7.0,83,0.00,,,0.00,weatherlink.com 1.10,2014-08-29 00:32:00,
2014-08-29 03:47:00,90.8,85.0,29.58,SE,135,0.0,5.0,84,0.00,,,0.00,weatherlink.com 1.10,2014-08-29 00:47:00,
2014-08-29 04:02:00,90.7,85.0,29.57,SE,137,2.0,5.0,84,0.00,,,0.00,weatherlink.com 1.10,2014-08-29 01:02:00,
2014-08-29 04:17:00,90.6,85.0,29.58,SE,143,0.0,8.0,84,0.00,,,0.00,weatherlink.com 1.10,2014-08-29 01:17:00,
2014-08-29 04:32:00,90.6,85.0,29.58,SE,141,4.0,5.0,84,0.00,,,0.00,weatherlink.com 1.10,2014-08-29 01:32:00,
2014-08-29 04:47:00,90.5,86.0,29.59,SE,140,0.0,5.0,85,0.00,,,0.00,weatherlink.com 1.10,2014-08-29 01:47:00,
2014-08-29 05:02:00,90.5,86.0,29.59,SE,140,0.0,0.0,85,0.00,,,0.00,weatherlink.com 1.10,2014-08-29 02:02:00,
2014-08-29 05:17:00,90.3,85.0,29.61,SSE,151,0.0,5.0,84,0.00,,,0.00,weatherlink.com 1.10,2014-08-29 02:17:00,